Location: Bathurst
(33.4193°S, 149.5775°E)
Time: 12:27:48
(UTC+10:00)

deb Explorer IX - All Passes

Search period start: 13 June 2021 00:00
Search period end: 23 June 2021 00:00
Orbit: 542 x 1097 km, 38.8° (Epoch: 12 June)

Date Brightness Start Highest point End Pass type
(mag) Time Alt. Az. Time Alt. Az. Time Alt. Az.
13 Jun - 00:36:11 10° WSW 00:42:27 60° SSE 00:47:45 10° E night (unlit)
13 Jun - 02:23:54 10° WSW 02:29:30 56° NNW 02:34:14 10° NE night (unlit)
13 Jun - 04:14:11 10° WNW 04:15:25 11° NW 04:16:38 10° NNW night (unlit)
13 Jun - 18:49:29 10° NNW 18:55:57 35° NE 19:02:13 10° E visible
13 Jun - 20:35:44 10° WNW 20:43:03 90° N 20:49:46 10° ESE visible
13 Jun - 22:23:54 10° W 22:30:46 55° S 22:36:47 10° ESE night (unlit)
14 Jun - 00:12:06 10° WSW 00:18:33 61° SSE 00:24:02 10° E night (unlit)
14 Jun - 01:59:52 10° WSW 02:05:39 57° NNW 02:10:33 10° NE night (unlit)
14 Jun - 03:49:56 10° WNW 03:51:36 11° NW 03:53:12 10° NNW night (unlit)
14 Jun - 18:25:29 10° NNW 18:31:55 35° NE 18:38:17 10° E visible
14 Jun - 20:11:41 10° WNW 20:19:02 90° NNE 20:25:54 10° ESE visible
14 Jun - 21:59:48 10° W 22:06:47 56° S 22:13:00 10° ESE visible
14 Jun - 23:48:00 10° WSW 23:54:38 62° SSE 00:00:17 10° E night (unlit)
15 Jun - 01:35:48 10° WSW 01:41:47 58° NNW 01:46:50 10° NE night (unlit)
15 Jun - 03:25:43 10° WNW 03:27:46 12° NW 03:29:42 10° NNW night (unlit)
15 Jun - 18:01:29 10° NNW 18:07:54 35° NE 18:14:18 10° E visible
15 Jun - 19:47:38 10° WNW 19:55:00 90° NNE 20:02:00 10° ESE visible
15 Jun - 21:35:43 10° W 21:42:47 56° S 21:49:10 10° ESE visible
15 Jun - 23:23:55 10° WSW 23:30:42 62° SSE 23:36:31 10° E night (unlit)
16 Jun - 01:11:43 10° WSW 01:17:53 59° NNW 01:23:07 10° NE night (unlit)
16 Jun - 03:01:31 10° WNW 03:03:54 13° NW 03:06:10 10° NNW night (unlit)
16 Jun - 17:37:30 10° NNW 17:43:52 35° NE 17:50:19 10° E visible
16 Jun - 19:23:36 10° WNW 19:30:58 90° N 19:38:04 10° ESE visible
16 Jun - 21:11:38 10° W 21:18:47 57° S 21:25:19 10° ESE visible
16 Jun - 22:59:48 10° WSW 23:06:44 63° SSE 23:12:44 10° E night (unlit)
17 Jun - 00:47:38 10° WSW 00:53:59 59° NNW 00:59:23 10° NE night (unlit)
17 Jun - 02:37:20 10° WNW 02:40:02 14° NW 02:42:35 10° NNW night (unlit)
17 Jun - 17:13:32 10° NNW 17:19:49 35° NE 17:26:18 10° E visible
17 Jun - 18:59:34 10° WNW 19:06:55 90° NNE 19:14:07 10° ESE visible
17 Jun - 20:47:33 10° W 20:54:45 57° S 21:01:26 10° ESE visible
17 Jun - 22:35:42 10° WSW 22:42:45 64° SSE 22:48:56 10° E night (unlit)
18 Jun - 00:23:32 10° WSW 00:30:03 60° NNW 00:35:37 10° NE night (unlit)
18 Jun - 02:13:08 10° WNW 02:16:09 14° NW 02:18:59 10° NNW night (unlit)
18 Jun - 16:49:35 10° NNW 16:55:47 34° NE 17:02:15 10° E daylight
18 Jun - 18:35:34 10° WNW 18:42:51 90° NNE 18:50:09 10° ESE visible
18 Jun - 20:23:29 10° W 20:30:43 57° S 20:37:32 10° ESE visible
18 Jun - 22:11:36 10° WSW 22:18:45 64° SSE 22:25:06 10° E night (unlit)
18 Jun - 23:59:25 10° WSW 00:06:06 61° NNW 00:11:51 10° NE night (unlit)
19 Jun - 01:48:56 10° WNW 01:52:15 15° NW 01:55:20 10° NNW night (unlit)
19 Jun - 16:25:40 10° NNW 16:31:45 34° NE 16:38:12 10° E daylight
19 Jun - 18:11:35 10° WNW 18:18:48 90° NNE 18:26:09 10° ESE visible
19 Jun - 19:59:26 10° W 20:06:40 58° S 20:13:36 10° ESE visible
19 Jun - 21:47:30 10° WSW 21:54:44 65° SSE 22:01:15 10° E visible
19 Jun - 23:35:18 10° WSW 23:42:08 62° NNW 23:48:03 10° NE night (unlit)
20 Jun - 01:24:45 10° W 01:28:20 16° NW 01:31:40 10° N night (unlit)
20 Jun - 16:01:46 10° NNW 16:07:43 34° NE 16:14:07 10° E daylight
20 Jun - 17:47:37 10° WNW 17:54:44 89° NE 18:02:07 10° ESE visible
20 Jun - 19:35:23 10° W 19:42:37 58° S 19:49:39 10° ESE visible
20 Jun - 21:23:24 10° WSW 21:30:41 65° SSE 21:37:22 10° E visible
20 Jun - 23:11:11 10° WSW 23:18:08 62° NNW 23:24:14 10° NE night (unlit)
21 Jun - 01:00:34 10° W 01:04:24 16° NW 01:07:57 10° N night (unlit)
21 Jun - 15:37:52 10° NNW 15:43:42 33° NE 15:50:00 10° E daylight
21 Jun - 17:23:39 10° WNW 17:30:39 89° NNE 17:38:04 10° ESE visible
21 Jun - 19:11:22 10° W 19:18:33 58° S 19:25:40 10° ESE visible
21 Jun - 20:59:19 10° WSW 21:06:39 65° SSE 21:13:28 10° E visible
21 Jun - 22:47:04 10° WSW 22:54:08 63° NNW 23:00:24 10° NE night (unlit)
22 Jun - 00:36:22 10° W 00:40:27 17° NW 00:44:14 10° N night (unlit)
22 Jun - 15:14:00 10° NNW 15:19:40 33° NE 15:25:54 10° E daylight
22 Jun - 16:59:42 10° WNW 17:06:36 89° NNE 17:14:00 10° ESE daylight
22 Jun - 18:47:21 10° W 18:54:28 58° S 19:01:39 10° ESE visible
22 Jun - 20:35:15 10° WSW 20:42:35 65° SSE 20:49:32 10° E visible
22 Jun - 22:22:57 10° WSW 22:30:06 63° NNW 22:36:32 10° NE night (unlit)
